Regional Weather Roundup
Issued by NWS

Home | Current Version | Previous Version | Graphics & Text | Print | Product List | Glossary On
Versions: 1 2 3 4 5 6 7 8 9 10 11 12 13 14 15 16 17 18 19 20 21 22 23 24 25 26 27 28 29 30 31 32 33 34 35 36 37 38 39 40 41 42 43 44 45 46 47 48 49 50
000
ASUS45 KCYS 031310
RWRWY

WYOMING REGIONAL WEATHER ROUNDUP
NATIONAL WEATHER SERVICE CHEYENNE WY
700 AM MDT MON AUG 03 2015

NOTE:  "FAIR" INDICATES FEW OR NO CLOUDS BELOW 12,000 FEET
WITH NO SIGNIFICANT WEATHER AND/OR OBSTRUCTIONS TO VISIBILITY.

WYZ001-031400-
YELLOWSTONE NATIONAL PARK

CITY           SKY/WX    TMP DP  RH WIND       PRES   REMARKS
LK YELLOWSTONE   N/A     47  39  74 CALM      30.26S
W YELLOWSTONE  NOT AVBL

$$
WYZ002>013-054>058-071-098>099-031400-
NORTHERN WYOMING

CITY           SKY/WX    TMP DP  RH WIND       PRES   REMARKS
JACKSON        CLEAR     52  39  62 VRB5      30.16R
CODY           FAIR      61  45  55 CALM      30.07S
GREYBULL       FAIR      60  40  47 CALM      29.99R
WORLAND        FAIR      61  39  44 SW5       30.01R
SHERIDAN       FAIR      57  46  66 CALM      30.03R
BUFFALO        FAIR      66  50  56 S9        30.09R
GILLETTE       FAIR      60  52  74 S5        30.06R
HULETT         FAIR      59  48  67 CALM      30.08R
NEWCASTLE      FAIR      61  50  67 CALM      30.07R

$$
WYZ014>020-022>026-101>103-031400-
CENTRAL WYOMING

CITY           SKY/WX    TMP DP  RH WIND       PRES   REMARKS
BIG PINEY      FAIR      54  38  54 NW3       30.20R
PINEDALE       FAIR      52  41  66 CALM      30.21R
DUBOIS         NOT AVBL
LANDER         FAIR      61  38  42 CALM      30.09R
RIVERTON       FAIR      64  49  57 N6        30.09R
CASPER         FAIR      58  51  78 SW3       30.11R
DOUGLAS        FAIR      59  53  80 CALM      30.10R

$$
WYZ021-027>030-104>119-031400-
SOUTHERN WYOMING

CITY           SKY/WX    TMP DP  RH WIND       PRES   REMARKS
EVANSTON       LGT RAIN  56  51  84 W12       30.18R
KEMMERER       PTSUNNY   59  46  63 NW7       30.20S
FORT BRIDGER   CLOUDY    63  48  59 N7        30.19F
ROCK SPRINGS   CLOUDY    62  47  57 SE6       30.18R
DIXON          CLOUDY    65  45  46 SE6       30.21F
RAWLINS        FAIR      60  45  57 NE3       30.21R
SARATOGA       FAIR      57  45  62 CALM      30.22R
LARAMIE        FAIR      56  46  69 SE8       30.22R
CHEYENNE       FAIR      63  50  62 W6        30.14R
TORRINGTON     FAIR      61  54  77 N3        30.02R
PINE BLUFFS    FAIR      57  52  82 CALM      30.09R

$$


USA.gov is the U.S. government's official web portal to all federal, state and local government web resources and services.